"SCET";"TARGET";"ELECTRON_DENSITY";"ERROR_FLAG";"ELECTRON_DENSITY_ERROR";"FREQ_FCE";"MEASURED_VALUE";"MEASURED_ITEM";"FREQ_PLASMA";"FREQ_UPPER_HYBRID";"FREQ_R_EQUALS_ZERO";"FREQ_L_EQUALS_ZERO";"ORBIT_NUMBER";"SATURN_RADIUS";"SATURN_IAU_LONGITUDE";"SATURN_SLS4_S_LONGITUDE";"SATURN_SLS4_N_LONGITUDE";"SATURN_SLS5_S_LONGITUDE";"SATURN_SLS5_N_LONGITUDE";"SATURN_LOCAL_TIME";"SATURN_KRONOGRAPHIC_LATITUDE";"SATURN_MAGNETIC_LATITUDE";"SATURN_L";"SATURN_L_OFFSET";"SATURN_SOLAR_EQUATORIAL_X";"SATURN_SOLAR_EQUATORIAL_Y";"SATURN_SOLAR_EQUATORIAL_Z";"SATURN_ALTITUDE";"ENCELADUS_ENCOUNTER_NUMBER";"ENCELADUS_RADIUS";"ENCELADUS_COROTATIONAL_X";"ENCELADUS_COROTATIONAL_Y";"ENCELADUS_COROTATIONAL_Z";"ENCELADUS_TRUE_ANOMALY";"ENCELADUS_PERIAPSIS_TIME";"JUPITER_RADIUS";"JUPITER_SYSTEMIII_LONGITUDE";"JUPITER_MAGNETIC_LATITUDE";"JUPITER_MAGNETIC_LOCAL_TIME";"JUPITER_L";"IO_PHASE";"EARTH_RADIUS";"EARTH_MAGNETIC_LATITUDE";"EARTH_LOCAL_TIME";"EARTH_L"
"[UTC]";"[0=Saturn, 1=Enceladus, 2=Jupiter, 3=Earth]";"[cm-3]";"[0=automated, 1=manual]";"[normalized density error]";"[Hz]";"[Hz]";"[0=upper hybrid frequency, 1=plasma frequency cutoff]";"[Hz]";"[Hz]";"[Hz]";"[Hz}";"[0, A, B, C, 3, 4, ... , 292, 293]";"[Rs where 1Rs=60268km]";"[degrees]";"[degrees]";"[degrees]";"[degrees]";"[degrees]";"[hours]";"[degrees]";"[degrees where offset=2293km north]";"[Rs where 1Rs=60268km]";"[Rs where 1Rs=60268km and offset=2293km north]";"[Rs where 1Rs=60268km]";"[Rs where 1Rs=60268km]";"[Rs where 1Rs=60268km]";"[km where ellipsoid a,b=60268km and c=54364km]";"[E0, E1, E2, ... , E21, E22]";"[Renc where 1Renc=252.1km]";"[Renc where 1Renc=252.1km]";"[Renc where 1Renc=252.1km]";"[Renc where 1Renc=252.1km]";"[degrees]";"[UTC]";"[Rj where 1Rj=71492km]";"[degrees]";"[degrees using JRM09 model]";"[hours using JRM09 model]";"[Rj where 1Rj=71492km]";"[degrees]";"[Re where 1Re=6378.1366km]";"[degrees]";"[hours]";"[Re where 1Re=6378.1366km]"
2005-03-08T23:40:20.394Z;0;9.7860e+00;0;     0.285;   710.640;  28100.121; 0;  28091.133;  28100.121;  28448.701;  27738.061;  4;   8.432;  45.576;  71.795;;  73.076; 311.481;  12.756;  -0.207;  -0.466;   8.432;   8.424;   8.268;   1.659;  -0.031;;;;;;;;;;;;;;;;;;
2005-03-08T23:40:36.394Z;0;9.9070e+00;0;     0.275;   710.500;  28273.996; 0;  28265.068;  28273.996;  28622.551;  27912.051;  4;   8.430;  45.712;  71.930;;  73.210; 311.619;  12.757;  -0.207;  -0.466;   8.430;   8.422;   8.265;   1.660;  -0.031;;;;;;;;;;;;;;;;;;
2005-03-08T23:40:52.394Z;0;9.6940e+00;0;     0.289;   710.500;  27967.830; 0;  27958.805;  27967.830;  28316.311;  27605.811;  4;   8.428;  45.849;  72.065;;  73.344; 311.757;  12.758;  -0.207;  -0.466;   8.428;   8.420;   8.263;   1.662;  -0.031;;;;;;;;;;;;;;;;;;
2005-03-08T23:41:08.394Z;0;9.5670e+00;0;     0.328;   715.596;  27785.545; 0;  27776.328;  27785.545;  28136.432;  27420.834;  4;   8.426;  45.985;  72.199;;  73.478; 311.896;  12.759;  -0.207;  -0.466;   8.426;   8.417;   8.260;   1.663;  -0.031;;;;;;;;;;;;;;;;;;
2005-03-08T23:41:24.394Z;0;9.6000e+00;0;     0.282;   715.596;  27833.135; 0;  27823.934;  27833.135;  28184.033;  27468.438;  4;   8.424;  46.122;  72.334;;  73.612; 312.034;  12.760;  -0.207;  -0.466;   8.424;   8.415;   8.258;   1.665;  -0.031;;;;;;;;;;;;;;;;;;
2005-03-08T23:41:40.393Z;0;1.0110e+01;0;     0.294;   715.484;  28562.863; 0;  28553.900;  28562.863;  28913.883;  28198.400;  4;   8.422;  46.258;  72.468;;  73.746; 312.172;  12.761;  -0.207;  -0.466;   8.422;   8.413;   8.255;   1.667;  -0.030;;;;;;;;;;;;;;;;;;
2005-03-08T23:41:56.393Z;0;1.0100e+01;0;     0.298;   715.484;  28546.520; 0;  28537.551;  28546.520;  28897.535;  28182.053;  4;   8.419;  46.394;  72.603;;  73.880; 312.311;  12.762;  -0.207;  -0.466;   8.420;   8.411;   8.253;   1.668;  -0.030;;;;;;;;;;;;;;;;;;
2005-03-08T23:42:12.393Z;0;9.8700e+00;0;     0.266;   706.552;  28220.723; 0;  28211.877;  28220.723;  28567.363;  27860.812;  4;   8.417;  46.531;  72.737;;  74.013; 312.449;  12.763;  -0.208;  -0.466;   8.417;   8.409;   8.250;   1.670;  -0.030;;;;;;;;;;;;;;;;;;
2005-03-08T23:42:28.393Z;0;1.0950e+01;0;     0.304;   706.552;  29722.066; 0;  29713.668;  29722.066;  30069.043;  29362.490;  4;   8.415;  46.667;  72.872;;  74.147; 312.587;  12.764;  -0.208;  -0.466;   8.415;   8.407;   8.248;   1.671;  -0.030;;;;;;;;;;;;;;;;;;
2005-03-08T23:42:44.393Z;0;1.1150e+01;0;     0.339;   706.412;  29987.846; 0;  29979.523;  29987.846;  30334.811;  29628.398;  4;   8.413;  46.804;  73.007;;  74.281; 312.725;  12.764;  -0.208;  -0.467;   8.413;   8.405;   8.245;   1.673;  -0.030;;;;;;;;;;;;;;;;;;
2005-03-08T23:43:00.393Z;0;9.8230e+00;0;     0.296;   706.412;  28153.627; 0;  28144.764;  28153.627;  28500.186;  27793.773;  4;   8.411;  46.940;  73.141;;  74.414; 312.864;  12.765;  -0.208;  -0.467;   8.411;   8.402;   8.243;   1.674;  -0.030;;;;;;;;;;;;;;;;;;
2005-03-08T23:43:16.393Z;0;1.0120e+01;0;     0.296;   720.496;  28571.398; 0;  28562.312;  28571.398;  28924.832;  28204.336;  4;   8.409;  47.076;  73.276;;  74.548; 313.002;  12.766;  -0.208;  -0.467;   8.409;   8.400;   8.240;   1.676;  -0.030;;;;;;;;;;;;;;;;;;
2005-03-08T23:43:32.393Z;0;1.1120e+01;0;     0.344;   720.356;  29959.424; 0;  29950.762;  29959.424;  30313.105;  29592.750;  4;   8.407;  47.213;  73.410;;  74.681; 313.140;  12.767;  -0.208;  -0.467;   8.407;   8.398;   8.238;   1.677;  -0.030;;;;;;;;;;;;;;;;;;
2005-03-08T23:43:48.393Z;0;1.0020e+01;0;     0.288;   720.356;  28428.684; 0;  28419.555;  28428.684;  28782.016;  28061.660;  4;   8.404;  47.349;  73.545;;  74.814; 313.278;  12.768;  -0.208;  -0.467;   8.405;   8.396;   8.235;   1.679;  -0.030;;;;;;;;;;;;;;;;;;
2005-03-08T23:44:04.393Z;0;9.6800e+00;0;     0.293;   749.112;  27949.857; 0;  27939.816;  27949.857;  28316.883;  27567.771;  4;   8.402;  47.486;  73.679;;  74.947; 313.417;  12.769;  -0.208;  -0.467;   8.402;   8.394;   8.233;   1.681;  -0.030;;;;;;;;;;;;;;;;;;
2005-03-08T23:44:20.392Z;0;9.9300e+00;0;     0.322;   749.112;  28307.311; 0;  28297.396;  28307.311;  28674.432;  27925.320;  4;   8.400;  47.622;  73.814;;  75.080; 313.555;  12.770;  -0.208;  -0.467;   8.400;   8.392;   8.230;   1.682;  -0.030;;;;;;;;;;;;;;;;;;
2005-03-08T23:44:36.392Z;0;9.8340e+00;0;     0.309;   749.000;  28170.605; 0;  28160.646;  28170.605;  28537.637;  27788.637;  4;   8.398;  47.758;  73.948;;  75.213; 313.693;  12.771;  -0.208;  -0.467;   8.398;   8.390;   8.228;   1.684;  -0.030;;;;;;;;;;;;;;;;;;
2005-03-08T23:44:52.392Z;0;9.8340e+00;0;     0.309;   749.000;  28170.605; 0;  28160.646;  28170.605;  28537.637;  27788.637;  4;   8.396;  47.895;  74.083;;  75.346; 313.831;  12.772;  -0.208;  -0.467;   8.396;   8.387;   8.225;   1.685;  -0.030;;;;;;;;;;;;;;;;;;
2005-03-08T23:45:08.392Z;0;9.7600e+00;0;     0.297;   731.192;  28064.654; 0;  28055.127;  28064.654;  28423.105;  27691.914;  4;   8.394;  48.031;  74.217;;  75.479; 313.970;  12.773;  -0.208;  -0.467;   8.394;   8.385;   8.222;   1.687;  -0.030;;;;;;;;;;;;;;;;;;
2005-03-08T23:45:24.392Z;0;1.0200e+01;0;     0.308;   731.192;  28688.582; 0;  28679.262;  28688.582;  29047.189;  28315.996;  4;   8.392;  48.167;  74.352;;  75.612; 314.108;  12.774;  -0.208;  -0.467;   8.392;   8.383;   8.220;   1.688;  -0.030;;;;;;;;;;;;;;;;;;
2005-03-08T23:45:40.392Z;0;1.0990e+01;0;     0.318;   731.080;  29775.080; 0;  29766.104;  29775.080;  30133.889;  29402.809;  4;   8.389;  48.304;  74.486;;  75.745; 314.246;  12.775;  -0.208;  -0.467;   8.389;   8.381;   8.217;   1.690;  -0.030;;;;;;;;;;;;;;;;;;
2005-03-08T23:45:56.392Z;0;9.9860e+00;0;     0.294;   731.080;  28387.279; 0;  28377.863;  28387.279;  28745.758;  28014.678;  4;   8.387;  48.440;  74.621;;  75.877; 314.384;  12.775;  -0.208;  -0.467;   8.387;   8.379;   8.215;   1.691;  -0.030;;;;;;;;;;;;;;;;;;
2005-03-08T23:46:12.392Z;0;9.8440e+00;0;     0.309;   749.336;  28185.279; 0;  28175.316;  28185.279;  28552.475;  27803.139;  4;   8.385;  48.576;  74.755;;  76.010; 314.522;  12.776;  -0.208;  -0.467;   8.385;   8.377;   8.212;   1.693;  -0.030;;;;;;;;;;;;;;;;;;
2005-03-08T23:46:28.392Z;0;1.0020e+01;0;     0.326;   749.336;  28435.855; 0;  28425.980;  28435.855;  28803.117;  28053.781;  4;   8.383;  48.713;  74.889;;  76.142; 314.661;  12.777;  -0.208;  -0.467;   8.383;   8.375;   8.210;   1.694;  -0.030;;;;;;;;;;;;;;;;;;
2005-03-08T23:46:44.391Z;0;9.7850e+00;0;     0.285;   749.224;  28100.121; 0;  28090.131;  28100.121;  28467.240;  27718.018;  4;   8.381;  48.849;  75.024;;  76.275; 314.799;  12.778;  -0.208;  -0.468;   8.381;   8.372;   8.207;   1.696;  -0.030;;;;;;;;;;;;;;;;;;
2005-03-08T23:47:00.391Z;0;1.0080e+01;0;     0.279;   749.224;  28519.064; 0;  28509.221;  28519.064;  28886.295;  28137.070;  4;   8.379;  48.985;  75.158;;  76.407; 314.937;  12.779;  -0.208;  -0.468;   8.379;   8.370;   8.205;   1.698;  -0.030;;;;;;;;;;;;;;;;;;
2005-03-08T23:47:16.391Z;0;9.9360e+00;0;     0.283;   742.168;  28316.281; 0;  28306.553;  28316.281;  28680.070;  27937.902;  4;   8.376;  49.122;  75.293;;  76.539; 315.075;  12.780;  -0.208;  -0.468;   8.377;   8.368;   8.202;   1.699;  -0.030;;;;;;;;;;;;;;;;;;
2005-03-08T23:47:32.391Z;0;9.9090e+00;0;     0.287;   742.056;  28277.887; 0;  28268.148;  28277.887;  28641.611;  27899.555;  4;   8.374;  49.258;  75.427;;  76.672; 315.213;  12.781;  -0.208;  -0.468;   8.374;   8.366;   8.200;   1.701;  -0.030;;;;;;;;;;;;;;;;;;
2005-03-08T23:47:48.391Z;0;1.0090e+01;0;     0.296;   742.056;  28536.699; 0;  28527.049;  28536.699;  28900.490;  28158.434;  4;   8.372;  49.394;  75.562;;  76.804; 315.351;  12.782;  -0.208;  -0.468;   8.372;   8.364;   8.197;   1.702;  -0.030;;;;;;;;;;;;;;;;;;
2005-03-08T23:48:04.391Z;0;9.8350e+00;0;     0.307;   752.500;  28171.818; 0;  28161.766;  28171.818;  28540.529;  27788.029;  4;   8.370;  49.530;  75.696;;  76.936; 315.489;  12.783;  -0.208;  -0.468;   8.370;   8.362;   8.195;   1.704;  -0.030;;;;;;;;;;;;;;;;;;
2005-03-08T23:48:20.391Z;0;9.7490e+00;0;     0.304;   752.500;  28049.158; 0;  28039.062;  28049.158;  28417.836;  27665.336;  4;   8.368;  49.667;  75.830;;  77.068; 315.628;  12.784;  -0.208;  -0.468;   8.368;   8.359;   8.192;   1.705;  -0.030;;;;;;;;;;;;;;;;;;
2005-03-08T23:48:36.391Z;0;9.9330e+00;0;     0.298;   752.360;  28311.537; 0;  28301.539;  28311.537;  28680.219;  27927.859;  4;   8.366;  49.803;  75.965;;  77.200; 315.766;  12.785;  -0.208;  -0.468;   8.366;   8.357;   8.190;   1.707;  -0.030;;;;;;;;;;;;;;;;;;
2005-03-08T23:48:52.391Z;0;9.8720e+00;0;     0.306;   752.360;  28224.885; 0;  28214.855;  28224.885;  28593.543;  27841.184;  4;   8.364;  49.939;  76.099;;  77.331; 315.904;  12.786;  -0.208;  -0.468;   8.364;   8.355;   8.187;   1.708;  -0.030;;;;;;;;;;;;;;;;;;
2005-03-08T23:49:08.391Z;0;1.1140e+01;0;     0.335;   741.300;  29982.473; 0;  29973.307;  29982.473;  30346.248;  29604.949;  4;   8.361;  50.075;  76.233;;  77.463; 316.042;  12.787;  -0.208;  -0.468;   8.362;   8.353;   8.185;   1.710;  -0.030;;;;;;;;;;;;;;;;;;
2005-03-08T23:49:24.390Z;0;1.0130e+01;0;     0.319;   741.300;  28591.963; 0;  28582.352;  28591.963;  28955.404;  28214.105;  4;   8.359;  50.212;  76.368;;  77.595; 316.180;  12.788;  -0.208;  -0.468;   8.359;   8.351;   8.182;   1.711;  -0.030;;;;;;;;;;;;;;;;;;
2005-03-08T23:49:40.390Z;0;9.3770e+00;0;     0.231;   741.188;  27508.010; 0;  27498.023;  27508.010;  27871.113;  27129.926;  4;   8.357;  50.348;  76.502;;  77.726; 316.318;  12.788;  -0.208;  -0.468;   8.357;   8.349;   8.180;   1.713;  -0.030;;;;;;;;;;;;;;;;;;
2005-03-08T23:49:56.390Z;0;9.7750e+00;0;     0.261;   741.188;  28085.791; 0;  28076.010;  28085.791;  28449.049;  27707.861;  4;   8.355;  50.484;  76.637;;  77.858; 316.456;  12.789;  -0.208;  -0.468;   8.355;   8.347;   8.177;   1.715;  -0.030;;;;;;;;;;;;;;;;;;
2005-03-08T23:50:12.390Z;0;1.0100e+01;0;     0.301;   746.648;  28554.086; 0;  28544.322;  28554.086;  28920.088;  28173.439;  4;   8.353;  50.620;  76.771;;  77.991; 316.593;  12.790;  -0.208;  -0.468;   8.353;   8.344;   8.175;   1.716;  -0.030;;;;;;;;;;;;;;;;;;
2005-03-08T23:50:28.390Z;0;1.0220e+01;0;     0.298;   746.648;  28720.236; 0;  28710.529;  28720.236;  29086.281;  28339.633;  4;   8.351;  50.756;  76.905;;  78.125; 316.730;  12.791;  -0.208;  -0.469;   8.351;   8.342;   8.172;   1.718;  -0.030;;;;;;;;;;;;;;;;;;
2005-03-08T23:50:44.390Z;0;1.0120e+01;0;     0.319;   746.536;  28571.555; 0;  28561.801;  28571.555;  28937.508;  28190.971;  4;   8.348;  50.893;  77.040;;  78.260; 316.866;  12.792;  -0.208;  -0.469;   8.349;   8.340;   8.170;   1.719;  -0.030;;;;;;;;;;;;;;;;;;
2005-03-08T23:51:00.390Z;0;1.0020e+01;0;     0.290;   746.536;  28441.602; 0;  28431.803;  28441.602;  28807.520;  28060.984;  4;   8.346;  51.029;  77.174;;  78.394; 317.003;  12.793;  -0.208;  -0.469;   8.346;   8.338;   8.167;   1.721;  -0.030;;;;;;;;;;;;;;;;;;
2005-03-08T23:51:16.390Z;0;9.9310e+00;0;     0.301;   762.972;  28308.736; 0;  28298.453;  28308.736;  28682.510;  27919.537;  4;   8.344;  51.165;  77.308;;  78.528; 317.139;  12.794;  -0.208;  -0.469;   8.344;   8.336;   8.165;   1.722;  -0.030;;;;;;;;;;;;;;;;;;
2005-03-08T23:51:32.390Z;0;1.0020e+01;0;     0.306;   762.832;  28435.826; 0;  28425.592;  28435.826;  28809.566;  28046.734;  4;   8.342;  51.301;  77.443;;  78.663; 317.276;  12.795;  -0.208;  -0.469;   8.342;   8.334;   8.162;   1.724;  -0.030;;;;;;;;;;;;;;;;;;
2005-03-08T23:51:48.389Z;0;9.9240e+00;0;     0.348;   762.832;  28298.744; 0;  28288.461;  28298.744;  28672.447;  27909.615;  4;   8.340;  51.437;  77.577;;  78.797; 317.412;  12.796;  -0.208;  -0.469;   8.340;   8.332;   8.159;   1.725;  -0.030;;;;;;;;;;;;;;;;;;
2005-03-08T23:52:04.389Z;0;1.0080e+01;0;     0.320;   757.428;  28525.742; 0;  28515.686;  28525.742;  28896.914;  28139.484;  4;   8.338;  51.573;  77.711;;  78.932; 317.548;  12.797;  -0.208;  -0.469;   8.338;   8.329;   8.157;   1.727;  -0.030;;;;;;;;;;;;;;;;;;
2005-03-08T23:52:20.389Z;0;1.1340e+01;0;     0.331;   757.428;  30249.557; 0;  30240.072;  30249.557;  30621.158;  29863.730;  4;   8.336;  51.710;  77.845;;  79.066; 317.684;  12.798;  -0.208;  -0.469;   8.336;   8.327;   8.154;   1.728;  -0.030;;;;;;;;;;;;;;;;;;
2005-03-08T23:52:36.389Z;0;1.0170e+01;0;     0.307;   757.316;  28642.758; 0;  28632.744;  28642.758;  29013.906;  28256.590;  4;   8.333;  51.846;  77.980;;  79.201; 317.820;  12.799;  -0.208;  -0.469;   8.334;   8.325;   8.152;   1.730;  -0.030;;;;;;;;;;;;;;;;;;
2005-03-08T23:52:52.389Z;0;9.2130e+00;0;     0.142;   757.316;  27266.979; 0;  27256.459;  27266.979;  27637.748;  26880.432;  4;   8.331;  51.982;  78.114;;  79.336; 317.956;  12.800;  -0.208;  -0.469;   8.331;   8.323;   8.149;   1.732;  -0.030;;;;;;;;;;;;;;;;;;
2005-03-08T23:53:08.389Z;0;1.0020e+01;0;     0.312;   759.220;  28438.107; 0;  28427.971;  28438.107;  28810.115;  28050.895;  4;   8.329;  52.118;  78.248;;  79.470; 318.092;  12.801;  -0.208;  -0.469;   8.329;   8.321;   8.147;   1.733;  -0.030;;;;;;;;;;;;;;;;;;
2005-03-08T23:53:24.389Z;0;1.0080e+01;0;     0.320;   759.220;  28525.742; 0;  28515.637;  28525.742;  28897.773;  28138.553;  4;   8.327;  52.254;  78.382;;  79.605; 318.228;  12.801;  -0.208;  -0.469;   8.327;   8.319;   8.144;   1.735;  -0.030;;;;;;;;;;;;;;;;;;
2005-03-08T23:53:40.389Z;0;1.1330e+01;0;     0.326;   759.108;  30237.326; 0;  30227.797;  30237.326;  30609.732;  29850.625;  4;   8.325;  52.390;  78.517;;  79.740; 318.363;  12.802;  -0.208;  -0.469;   8.325;   8.316;   8.142;   1.736;  -0.030;;;;;;;;;;;;;;;;;;
2005-03-08T23:53:56.389Z;0;1.1380e+01;0;     0.381;   759.108;  30299.779; 0;  30290.270;  30299.779;  30672.201;  29913.092;  4;   8.323;  52.526;  78.651;;  79.875; 318.499;  12.803;  -0.208;  -0.469;   8.323;   8.314;   8.139;   1.738;  -0.030;;;;;;;;;;;;;;;;;;
2005-03-08T23:54:12.389Z;0;1.0250e+01;0;     0.300;   758.408;  28764.848; 0;  28754.848;  28764.848;  29136.553;  28378.145;  4;   8.320;  52.662;  78.785;;  80.010; 318.635;  12.804;  -0.208;  -0.469;   8.321;   8.312;   8.137;   1.739;  -0.030;;;;;;;;;;;;;;;;;;
2005-03-08T23:54:28.388Z;0;9.9610e+00;0;     0.318;   758.408;  28352.186; 0;  28342.041;  28352.186;  28723.781;  27965.373;  4;   8.318;  52.799;  78.919;;  80.145; 318.770;  12.805;  -0.208;  -0.470;   8.318;   8.310;   8.134;   1.741;  -0.030;;;;;;;;;;;;;;;;;;
2005-03-08T23:54:44.388Z;0;1.0410e+01;0;     0.343;   758.296;  28978.691; 0;  28968.768;  28978.691;  29350.398;  28592.102;  4;   8.316;  52.935;  79.054;;  80.280; 318.905;  12.806;  -0.208;  -0.470;   8.316;   8.308;   8.132;   1.742;  -0.030;;;;;;;;;;;;;;;;;;
2005-03-08T23:55:00.388Z;0;1.0180e+01;0;     0.282;   758.296;  28662.908; 0;  28652.875;  28662.908;  29034.533;  28276.236;  4;   8.314;  53.071;  79.188;;  80.416; 319.041;  12.807;  -0.208;  -0.470;   8.314;   8.306;   8.129;   1.744;  -0.030;;;;;;;;;;;;;;;;;;
2005-03-08T23:55:16.388Z;0;1.1040e+01;0;     0.336;   759.752;  29844.861; 0;  29835.189;  29844.861;  30217.484;  29457.732;  4;   8.312;  53.207;  79.322;;  80.551; 319.176;  12.808;  -0.208;  -0.470;   8.312;   8.304;   8.127;   1.745;  -0.030;;;;;;;;;;;;;;;;;;
2005-03-08T23:55:32.388Z;0;1.1230e+01;0;     0.323;   759.612;  30101.896; 0;  30092.311;  30101.896;  30474.514;  29714.902;  4;   8.310;  53.343;  79.456;;  80.686; 319.311;  12.809;  -0.208;  -0.470;   8.310;   8.301;   8.124;   1.747;  -0.030;;;;;;;;;;;;;;;;;;
2005-03-08T23:55:48.388Z;0;1.1430e+01;0;     0.324;   759.612;  30373.188; 0;  30363.688;  30373.188;  30745.869;  29986.256;  4;   8.308;  53.479;  79.591;;  80.822; 319.446;  12.810;  -0.208;  -0.470;   8.308;   8.299;   8.121;   1.749;  -0.030;;;;;;;;;;;;;;;;;;
2005-03-08T23:56:04.388Z;0;1.1300e+01;0;     0.329;   764.596;  30195.121; 0;  30185.439;  30195.121;  30570.158;  29805.562;  4;   8.305;  53.615;  79.725;;  80.957; 319.581;  12.811;  -0.208;  -0.470;   8.306;   8.297;   8.119;   1.750;  -0.030;;;;;;;;;;;;;;;;;;
2005-03-08T23:56:20.388Z;0;1.1410e+01;0;     0.349;   764.596;  30345.074; 0;  30335.439;  30345.074;  30720.146;  29955.551;  4;   8.303;  53.751;  79.859;;  81.093; 319.716;  12.812;  -0.208;  -0.470;   8.303;   8.295;   8.116;   1.752;  -0.030;;;;;;;;;;;;;;;;;;
2005-03-08T23:56:36.388Z;0;1.1200e+01;0;     0.314;   764.484;  30055.932; 0;  30046.207;  30055.932;  30430.881;  29666.396;  4;   8.301;  53.887;  79.993;;  81.229; 319.851;  12.813;  -0.208;  -0.470;   8.301;   8.293;   8.114;   1.753;  -0.030;;;;;;;;;;;;;;;;;;
2005-03-08T23:56:52.388Z;0;1.1400e+01;0;     0.301;   764.484;  30325.559; 0;  30315.922;  30325.559;  30700.572;  29936.088;  4;   8.299;  54.023;  80.127;;  81.364; 319.986;  12.814;  -0.208;  -0.470;   8.299;   8.291;   8.111;   1.755;  -0.030;;;;;;;;;;;;;;;;;;
2005-03-08T23:57:08.387Z;0;1.1080e+01;0;     0.316;   771.148;  29898.973; 0;  29889.025;  29898.973;  30277.088;  29505.939;  4;   8.297;  54.159;  80.261;;  81.500; 320.120;  12.815;  -0.208;  -0.470;   8.297;   8.288;   8.109;   1.756;  -0.030;;;;;;;;;;;;;;;;;;
2005-03-08T23:57:24.387Z;0;1.1160e+01;0;     0.341;   771.148;  30007.863; 0;  29997.953;  30007.863;  30386.006;  29614.857;  4;   8.295;  54.295;  80.396;;  81.636; 320.255;  12.816;  -0.208;  -0.470;   8.295;   8.286;   8.106;   1.758;  -0.030;;;;;;;;;;;;;;;;;;
2005-03-08T23:57:40.387Z;0;1.1420e+01;0;     0.337;   771.008;  30358.346; 0;  30348.553;  30358.346;  30736.506;  29965.498;  4;   8.292;  54.431;  80.530;;  81.772; 320.390;  12.817;  -0.208;  -0.470;   8.293;   8.284;   8.104;   1.759;  -0.030;;;;;;;;;;;;;;;;;;
2005-03-08T23:57:56.387Z;0;1.1340e+01;0;     0.308;   771.008;  30245.533; 0;  30235.705;  30245.533;  30623.666;  29852.658;  4;   8.290;  54.567;  80.664;;  81.908; 320.524;  12.817;  -0.208;  -0.470;   8.290;   8.282;   8.101;   1.761;  -0.030;;;;;;;;;;;;;;;;;;
2005-03-08T23:58:12.387Z;0;1.1560e+01;0;     0.302;   780.948;  30544.420; 0;  30534.436;  30544.420;  30927.406;  30146.457;  4;   8.288;  54.703;  80.798;;  82.044; 320.658;  12.818;  -0.208;  -0.470;   8.288;   8.280;   8.099;   1.762;  -0.030;;;;;;;;;;;;;;;;;;
2005-03-08T23:58:28.387Z;0;1.1310e+01;0;     0.326;   780.948;  30212.170; 0;  30202.074;  30212.170;  30595.072;  29814.125;  4;   8.286;  54.839;  80.932;;  82.180; 320.793;  12.819;  -0.208;  -0.471;   8.286;   8.278;   8.096;   1.764;  -0.030;;;;;;;;;;;;;;;;;;
2005-03-08T23:58:44.387Z;0;1.0770e+01;0;     0.334;   780.808;  29479.580; 0;  29469.238;  29479.580;  29862.229;  29081.420;  4;   8.284;  54.975;  81.066;;  82.316; 320.927;  12.820;  -0.208;  -0.471;   8.284;   8.276;   8.094;   1.766;  -0.030;;;;;;;;;;;;;;;;;;
2005-03-08T23:59:00.387Z;0;1.1770e+01;0;     0.311;   780.808;  30819.139; 0;  30809.246;  30819.139;  31202.123;  30421.316;  4;   8.282;  55.111;  81.200;;  82.452; 321.061;  12.821;  -0.208;  -0.471;   8.282;   8.273;   8.091;   1.767;  -0.030;;;;;;;;;;;;;;;;;;
2005-03-08T23:59:16.387Z;0;1.1760e+01;0;     0.291;   774.648;  30807.619; 0;  30797.879;  30807.619;  31187.639;  30412.990;  4;   8.280;  55.247;  81.334;;  82.588; 321.195;  12.822;  -0.208;  -0.471;   8.280;   8.271;   8.088;   1.769;  -0.030;;;;;;;;;;;;;;;;;;
2005-03-08T23:59:32.386Z;0;1.1750e+01;0;     0.299;   774.536;  30796.680; 0;  30786.938;  30796.680;  31176.643;  30402.105;  4;   8.277;  55.383;  81.468;;  82.725; 321.329;  12.823;  -0.208;  -0.471;   8.277;   8.269;   8.086;   1.770;  -0.030;;;;;;;;;;;;;;;;;;
2005-03-08T23:59:48.386Z;0;1.1380e+01;0;     0.304;   774.536;  30308.992; 0;  30299.094;  30308.992;  30688.836;  29914.301;  4;   8.275;  55.519;  81.603;;  82.861; 321.463;  12.824;  -0.208;  -0.471;   8.275;   8.267;   8.083;   1.772;  -0.030;;;;;;;;;;;;;;;;;;
